This is the latest recevied weather packets stored in our database for station/object W2GRK-15. If no packets are shown the sender has not sent any weather packets the latest 10 day(s).
| Time | Temp. | Humidity | Pressure | Rain* | Wind** | Luminosity | Snow |
|---|---|---|---|---|---|---|---|
| 1777910958 | 20° C | 38% | 1012.8 hPa | 0 mm | - | 805 W/m² | - |
| 1777910737 | 19.44° C | 36% | 1012.9 hPa | 0 mm | - | 813 W/m² | - |
| 1777910604 | 19.44° C | 38% | 1013 hPa | 0 mm | - | 811 W/m² | - |
| 1777910491 | 19.44° C | 37% | 1013 hPa | 0 mm | - | 810 W/m² | - |
| 1777909525 | 19.44° C | 39% | 1013.1 hPa | 0 mm | - | 799 W/m² | - |
| 1777909170 | 20° C | 39% | 1013.3 hPa | 0 mm | - | 824 W/m² | - |
| 1777908381 | 19.44° C | 39% | 1013.3 hPa | 0 mm | - | 767 W/m² | - |
| 1777908139 | 19.44° C | 37% | 1013.3 hPa | 0 mm | - | 760 W/m² | - |
| 1777907849 | 19.44° C | 39% | 1013.5 hPa | 0 mm | - | 747 W/m² | - |
| 1777907785 | 19.44° C | 40% | 1013.4 hPa | 0 mm | - | 747 W/m² | - |
| 1777907720 | 19.44° C | 40% | 1013.5 hPa | 0 mm | - | 746 W/m² | - |
| 1777907498 | 20° C | 40% | 1013.3 hPa | 0 mm | - | 733 W/m² | - |
| 1777907366 | 19.44° C | 42% | 1013.5 hPa | 0 mm | - | 728 W/m² | - |
| 1777907060 | 18.33° C | 40% | 1013.5 hPa | 0 mm | - | 718 W/m² | - |
| 1777906221 | 18.89° C | 39% | 1013.5 hPa | 0 mm | - | 689 W/m² | - |
| 1777906156 | 18.89° C | 41% | 1013.7 hPa | 0 mm | - | 690 W/m² | - |
| 1777905931 | 18.33° C | 42% | 1013.6 hPa | 0 mm | - | 680 W/m² | - |
| 1777904240 | 17.78° C | 47% | 1013.8 hPa | 0 mm | - | 628 W/m² | - |
| 1777903338 | 16.67° C | 51% | 1013.8 hPa | 0 mm | - | 551 W/m² | - |
| 1777903226 | 16.67° C | 50% | 1013.9 hPa | 0 mm | - | 587 W/m² | - |
| 1777902520 | 16.67° C | 52% | 1014 hPa | 0 mm | - | 553 W/m² | - |
| 1777902387 | 16.67° C | 50% | 1014.2 hPa | 0 mm | - | 545 W/m² | - |
| 1777902323 | 16.11° C | 51% | 1014.1 hPa | 0 mm | - | 542 W/m² | - |
| 1777901989 | 16.11° C | 50% | 1014.2 hPa | 0 mm | - | 520 W/m² | - |
| 1777901357 | 16.11° C | 51% | 1014.3 hPa | 0 mm | - | 465 W/m² | - |
* Rain latest hour (hover to see other rain measurements)
** Current wind speed in m/s (hover to see current wind gust speed)